| time (UTC) | temp F | wind direction | speed MPH | gust MPH | rain 1hr in | rain 24hr in | rain mn in | humidity % | barometer mb |
| 20260509090035 | 52 | 174 | 5.0 | 9.0 | 0.00 | 0.00 | 0.00 | 65 | 1019.4 |
| 20260509084539 | 51 | 159 | 6.0 | 8.0 | 0.00 | 0.00 | 0.00 | 69 | 1019.3 |
| 20260509083035 | 49 | 141 | 5.0 | 8.0 | 0.00 | 0.00 | 0.00 | 72 | 1019.4 |
| 20260509081532 | 49 | 134 | 2.0 | 8.0 | 0.00 | 0.00 | 0.00 | 71 | 1019.3 |
| 20260509080040 | 50 | 137 | 3.0 | 6.0 | 0.00 | 0.00 | 0.00 | 69 | 1019.2 |
| 20260509074527 | 50 | 127 | 1.0 | 5.0 | 0.00 | 0.00 | 0.00 | 69 | 1019.1 |
| 20260509073037 | 54 | 125 | 3.0 | 6.0 | 0.00 | 0.00 | 0.00 | 62 | 1019.0 |
| 20260509071518 | 55 | 166 | 5.0 | 9.0 | 0.00 | 0.00 | 0.00 | 58 | 1018.8 |
| 20260509070019 | 56 | 178 | 5.0 | 10.0 | 0.00 | 0.00 | 0.00 | 57 | 1018.6 |
| 20260509064514 | 56 | 174 | 7.0 | 10.0 | 0.00 | 0.00 | 0.00 | 57 | 1018.6 |
| 20260509063013 | 57 | 184 | 6.0 | 11.0 | 0.00 | 0.00 | 0.00 | 54 | 1018.6 |
| 20260509061512 | 57 | 203 | 7.0 | 12.0 | 0.00 | 0.00 | 0.00 | 54 | 1018.5 |
| 20260509060016 | 58 | 223 | 8.0 | 12.0 | 0.00 | 0.00 | 0.00 | 52 | 1018.4 |
| 20260509054518 | 58 | 167 | 6.0 | 15.0 | 0.00 | 0.00 | 0.00 | 52 | 1018.4 |
| 20260509053013 | 58 | 205 | 5.0 | 11.0 | 0.00 | 0.00 | 0.00 | 51 | 1018.2 |
| 20260509051506 | 59 | 174 | 8.0 | 13.0 | 0.00 | 0.00 | 0.00 | 48 | 1018.1 |
| 20260509050006 | 59 | 187 | 6.0 | 13.0 | 0.00 | 0.00 | 0.00 | 48 | 1017.9 |
| 20260509044503 | 60 | 244 | 6.0 | 12.0 | 0.00 | 0.00 | 0.00 | 45 | 1017.7 |
| 20260509043001 | 60 | 191 | 7.0 | 15.0 | 0.00 | 0.00 | 0.00 | 44 | 1017.5 |
| 20260509041600 | 60 | 240 | 3.0 | 13.0 | 0.00 | 0.00 | 0.00 | 44 | 1017.3 |
| 20260509040107 | 61 | 238 | 4.0 | 10.0 | 0.00 | 0.00 | 0.00 | 44 | 1017.2 |
| 20260509034556 | 61 | 207 | 7.0 | 10.0 | 0.00 | 0.00 | 0.00 | 43 | 1016.8 |
| 20260509033055 | 61 | 193 | 4.0 | 10.0 | 0.00 | 0.00 | 0.00 | 43 | 1016.7 |
| 20260509031552 | 63 | 193 | 7.0 | 12.0 | 0.00 | 0.00 | 0.00 | 40 | 1016.2 |
| 20260509030050 | 64 | 199 | 7.0 | 13.0 | 0.00 | 0.00 | 0.00 | 38 | 1015.7 |
| 20260509024548 | 66 | 262 | 12.0 | 20.0 | 0.00 | 0.00 | 0.00 | 35 | 1015.6 |
| 20260509023048 | 67 | 239 | 14.0 | 24.0 | 0.00 | 0.00 | 0.00 | 34 | 1015.4 |
| 20260509021547 | 68 | 255 | 13.0 | 27.0 | 0.00 | 0.00 | 0.00 | 33 | 1015.2 |
| 20260509020047 | 69 | 265 | 15.0 | 24.0 | 0.00 | 0.00 | 0.00 | 32 | 1015.0 |
| 20260509014546 | 70 | 245 | 23.0 | 31.0 | 0.00 | 0.00 | 0.00 | 30 | 1015.0 |
| 20260509013058 | 71 | 272 | 16.0 | 27.0 | 0.00 | 0.00 | 0.00 | 29 | 1014.7 |
| 20260509011545 | 71 | 236 | 15.0 | 28.0 | 0.00 | 0.00 | 0.00 | 26 | 1014.7 |
| 20260509010044 | 71 | 255 | 20.0 | 28.0 | 0.00 | 0.00 | 0.00 | 25 | 1014.8 |
| 20260509004607 | 72 | 257 | 20.0 | 31.0 | 0.00 | 0.00 | 0.00 | 25 | 1014.9 |
| 20260509003048 | 72 | 232 | 22.0 | 31.0 | 0.00 | 0.00 | 0.00 | 25 | 1015.1 |
| 20260509001543 | 73 | 271 | 19.0 | 30.0 | 0.00 | 0.00 | 0.00 | 25 | 1014.9 |
| 20260509000042 | 72 | 263 | 19.0 | 28.0 | 0.00 | 0.00 | 0.00 | 23 | 1015.0 |
| 20260508234545 | 72 | 252 | 17.0 | 27.0 | 0.00 | 0.00 | 0.00 | 21 | 1014.9 |
| 20260508233040 | 72 | 250 | 18.0 | 27.0 | 0.00 | 0.00 | 0.00 | 22 | 1014.9 |
| 20260508231539 | 73 | 229 | 19.0 | 33.0 | 0.00 | 0.00 | 0.00 | 18 | 1014.9 |
| 20260508230052 | 73 | 269 | 15.0 | 26.0 | 0.00 | 0.00 | 0.00 | 22 | 1014.8 |
| 20260508224538 | 72 | 254 | 15.0 | 25.0 | 0.00 | 0.00 | 0.00 | 20 | 1014.8 |
| 20260508223036 | 73 | 259 | 18.0 | 24.0 | 0.00 | 0.00 | 0.00 | 21 | 1014.9 |
| 20260508221537 | 72 | 253 | 14.0 | 25.0 | 0.00 | 0.00 | 0.00 | 24 | 1014.9 |
| 20260508220034 | 72 | 249 | 16.0 | 23.0 | 0.00 | 0.00 | 0.00 | 24 | 1014.8 |
| 20260508214534 | 73 | 273 | 17.0 | 23.0 | 0.00 | 0.00 | 0.00 | 24 | 1014.9 |
| 20260508213031 | 72 | 262 | 14.0 | 21.0 | 0.00 | 0.00 | 0.00 | 26 | 1014.9 |
| 20260508211534 | 71 | 285 | 15.0 | 22.0 | 0.00 | 0.00 | 0.00 | 31 | 1015.0 |
| 20260508210035 | 71 | 258 | 17.0 | 27.0 | 0.00 | 0.00 | 0.00 | 30 | 1015.0 |
| 20260508204529 | 72 | 285 | 16.0 | 27.0 | 0.00 | 0.00 | 0.00 | 34 | 1014.7 |
| 20260508203028 | 72 | 288 | 18.0 | 24.0 | 0.00 | 0.00 | 0.00 | 32 | 1014.7 |
| 20260508201527 | 74 | 245 | 11.0 | 17.0 | 0.00 | 0.00 | 0.00 | 28 | 1014.3 |
| 20260508200036 | 73 | 290 | 3.0 | 8.0 | 0.00 | 0.00 | 0.00 | 32 | 1014.2 |
| 20260508194522 | 70 | 259 | 3.0 | 7.0 | 0.00 | 0.00 | 0.00 | 30 | 1014.4 |
| 20260508193022 | 70 | 269 | 4.0 | 10.0 | 0.00 | 0.00 | 0.00 | 33 | 1014.4 |
| 20260508191524 | 70 | 214 | 1.0 | 9.0 | 0.00 | 0.00 | 0.00 | 31 | 1014.6 |
| 20260508190021 | 70 | 241 | 3.0 | 15.0 | 0.00 | 0.00 | 0.00 | 31 | 1014.9 |
| 20260508184528 | 69 | 207 | 3.0 | 8.0 | 0.00 | 0.00 | 0.00 | 38 | 1015.0 |
| 20260508183014 | 67 | 265 | 3.0 | 9.0 | 0.00 | 0.00 | 0.00 | 41 | 1015.2 |
| 20260508181525 | 66 | 273 | 3.0 | 9.0 | 0.00 | 0.00 | 0.00 | 41 | 1015.5 |
| 20260508180011 | 65 | 252 | 6.0 | 11.0 | 0.00 | 0.00 | 0.00 | 40 | 1015.6 |
| 20260508174513 | 65 | 313 | 4.0 | 8.0 | 0.00 | 0.00 | 0.00 | 42 | 1015.6 |
| 20260508173008 | 65 | 251 | 3.0 | 11.0 | 0.00 | 0.00 | 0.00 | 39 | 1015.7 |
| 20260508171506 | 65 | 257 | 7.0 | 12.0 | 0.00 | 0.00 | 0.00 | 39 | 1015.8 |
| 20260508170004 | 64 | 245 | 3.0 | 7.0 | 0.00 | 0.00 | 0.00 | 43 | 1015.7 |
| 20260508164501 | 63 | 250 | 3.0 | 5.0 | 0.00 | 0.00 | 0.00 | 43 | 1015.6 |
| 20260508163100 | 62 | 7 | 2.0 | 7.0 | 0.00 | 0.00 | 0.00 | 41 | 1015.4 |
| 20260508161558 | 62 | 307 | 3.0 | 6.0 | 0.00 | 0.00 | 0.00 | 46 | 1015.3 |
| 20260508160057 | 62 | 326 | 2.0 | 4.0 | 0.00 | 0.00 | 0.00 | 45 | 1015.3 |
| 20260508154557 | 63 | 214 | 3.0 | 5.0 | 0.00 | 0.00 | 0.00 | 39 | 1015.1 |
| 20260508153054 | 62 | 257 | 2.0 | 4.0 | 0.00 | 0.00 | 0.00 | 41 | 1015.1 |
| 20260508151600 | 62 | 218 | 4.0 | 7.0 | 0.00 | 0.00 | 0.00 | 39 | 1015.1 |
| 20260508150059 | 59 | 102 | 1.0 | 2.0 | 0.00 | 0.00 | 0.00 | 52 | 1015.1 |
| 20260508144604 | 57 | 206 | 1.0 | 2.0 | 0.00 | 0.00 | 0.00 | 49 | 1015.1 |
| 20260508143045 | 54 | 217 | 1.0 | 2.0 | 0.00 | 0.00 | 0.00 | 55 | 1015.1 |
| 20260508141551 | 53 | 191 | 0.0 | 1.0 | 0.00 | 0.00 | 0.00 | 53 | 1015.0 |
| 20260508140048 | 50 | 191 | 0.0 | 4.0 | 0.00 | 0.00 | 0.00 | 55 | 1015.1 |
| 20260508134544 | 49 | 107 | 0.0 | 0.0 | 0.00 | 0.00 | 0.00 | 57 | 1014.9 |
| 20260508133105 | 47 | 251 | 0.0 | 2.0 | 0.00 | 0.00 | 0.00 | 56 | 1014.7 |
| 20260508131535 | 47 | 191 | 1.0 | 5.0 | 0.00 | 0.00 | 0.00 | 58 | 1014.5 |
| 20260508130037 | 47 | 141 | 4.0 | 7.0 | 0.00 | 0.00 | 0.00 | 55 | 1014.4 |
| 20260508124534 | 53 | 138 | 2.0 | 6.0 | 0.00 | 0.00 | 0.00 | 43 | 1014.3 |
| 20260508123031 | 56 | 139 | 2.0 | 12.0 | 0.00 | 0.00 | 0.00 | 35 | 1014.3 |
| 20260508121535 | 58 | 199 | 6.0 | 12.0 | 0.00 | 0.00 | 0.00 | 33 | 1014.3 |
| 20260508120027 | 56 | 153 | 6.0 | 9.0 | 0.00 | 0.00 | 0.00 | 33 | 1014.4 |
| 20260508114525 | 55 | 158 | 7.0 | 11.0 | 0.00 | 0.00 | 0.00 | 34 | 1014.3 |
| 20260508113024 | 53 | 143 | 6.0 | 10.0 | 0.00 | 0.00 | 0.00 | 37 | 1014.2 |
| 20260508111522 | 52 | 146 | 6.0 | 10.0 | 0.00 | 0.00 | 0.00 | 40 | 1014.1 |
| 20260508110041 | 48 | 153 | 4.0 | 9.0 | 0.00 | 0.00 | 0.00 | 45 | 1014.0 |
| 20260508104517 | 46 | 143 | 3.0 | 7.0 | 0.00 | 0.00 | 0.00 | 51 | 1013.8 |
| 20260508103016 | 44 | 148 | 2.0 | 4.0 | 0.00 | 0.00 | 0.00 | 55 | 1013.8 |
| 20260508101516 | 45 | 110 | 0.0 | 1.0 | 0.00 | 0.00 | 0.00 | 53 | 1013.9 |
| 20260508100017 | 44 | 110 | 3.0 | 4.0 | 0.00 | 0.00 | 0.00 | 55 | 1013.7 |
| 20260508094509 | 45 | 143 | 0.0 | 3.0 | 0.00 | 0.00 | 0.00 | 50 | 1013.8 |
| 20260508093008 | 45 | 148 | 2.0 | 4.0 | 0.00 | 0.00 | 0.00 | 48 | 1013.7 |
| 20260508091504 | 47 | 242 | 3.0 | 4.0 | 0.00 | 0.00 | 0.00 | 45 | 1013.6 |